Flag for Russia Weather past 2 weeks in Khabarovsk, Russia

Now
39 °F

Clear.


Feels Like: 39 °F
Forecast: 45 / 67 °F
Wind: 1 mph from North

Location: Habarovsk

Current Time: Sep 20, 2014 at 7:32:24 AM

Latest Report: Sep 20, 2014 at 7:00 AM


Visibility: 10 mi

Pressure: 29.89 "Hg

Humidity: 100%

Dew point: 39 °F

Location of KhabarovskLocation

Historic Weather in Khabarovsk — Graph

°F

Khabarovsk temperature yesterday

Maximum temperature yesterday: 63 °F (at 2:00 PM)
Minimum temperature yesterday: 41 °F (at 7:30 AM)
Average temperature yesterday: 53 °F

Past Weeks' High & Low Weather Summary

 TemperatureHumidityPressure
High77 °F (Sep 14, 3:00 PM)100% (Sep 5, 6:30 AM)30.04 "Hg (Sep 5, 6:30 AM)
Low39 °F (Sep 17, 7:30 AM)35% (Sep 15, 3:00 PM)29.59 "Hg (Sep 5, 6:00 AM)
Average59 °F80%29.86 "Hg
* Reported Sep 5 6:00 AM — Sep 20 6:30 AM, Khabarovsk, Weather by CustomWeather, © 2014

Note: Actual official high and low records may vary slightly from our data, if they occured in-between our weather recording intervals... More about our weather records

Advertising

Khabarovsk weather history for previous 24 hours

 ConditionsComfort  
Time TempWeatherWind HumidityBarometerVisibility
6:30 AM
Sep 20
43 °FClear.1 mph93%29.89 "Hg10 mi
6:00 AM46 °FPassing clouds.3 mph93%29.89 "HgN/A
5:30 AM46 °FPassing clouds.3 mph93%29.89 "HgN/A
5:00 AM48 °FClear.6 mph87%29.89 "Hg10 mi
4:30 AM50 °FClear.8 mph88%29.86 "Hg10 mi
4:00 AM52 °FClear.13 mph82%29.86 "Hg10 mi
3:30 AM46 °FClear.8 mph87%29.89 "Hg10 mi
3:00 AM46 °FClear.6 mph87%29.89 "Hg10 mi
2:30 AM46 °FClear.6 mph87%29.86 "Hg10 mi
2:00 AM46 °FClear.8 mph87%29.89 "Hg10 mi
1:30 AM46 °FClear.6 mph87%29.89 "Hg10 mi
1:00 AM48 °FClear.3 mph82%29.89 "Hg10 mi
12:30 AM46 °FClear.6 mph93%29.89 "Hg10 mi
12:00 AM46 °FClear.6 mph93%29.89 "Hg10 mi
11:30 PM
Sep 19
50 °FClear.6 mph88%29.89 "Hg10 mi
11:00 PM52 °FClear.3 mph82%29.89 "Hg10 mi
10:30 PM52 °FClear.3 mph82%29.89 "Hg10 mi
10:00 PM52 °FClear.3 mph82%29.89 "Hg10 mi
9:30 PM52 °FClear.3 mph82%29.89 "Hg10 mi
9:00 PM54 °FSunny.6 mph72%29.86 "Hg10 mi
8:30 PM55 °FSunny.6 mph72%29.86 "Hg10 mi
8:00 PM57 °FSunny.8 mph67%29.86 "Hg10 mi
7:30 PM59 °FSunny.3 mph63%29.86 "Hg10 mi
7:00 PM59 °FBroken clouds.6 mph63%29.86 "HgN/A
6:30 PM61 °FBroken clouds.8 mph59%29.86 "HgN/A
6:00 PM63 °FPartly sunny.8 mph56%29.86 "HgN/A
5:30 PM63 °FPartly sunny.8 mph59%29.86 "HgN/A
5:00 PM59 °FPartly sunny.3 mph68%29.89 "HgN/A
4:30 PM57 °FSprinkles. Partly sunny.10 mph59%29.89 "HgN/A
4:00 PM61 °FPartly sunny.8 mph52%29.89 "HgN/A
3:30 PM63 °FScattered clouds.3 mph45%29.89 "HgN/A
3:00 PM61 °FScattered clouds.8 mph63%29.92 "HgN/A
2:30 PM63 °FScattered clouds.10 mph56%29.92 "HgN/A
2:00 PM63 °FScattered clouds.8 mph49%29.92 "HgN/A
1:30 PM59 °FScattered clouds.8 mph59%29.92 "HgN/A
1:00 PM61 °FScattered clouds.8 mph52%29.92 "HgN/A
12:30 PM59 °FScattered clouds.6 mph48%29.95 "HgN/A
12:00 PM59 °FPassing clouds.8 mph48%29.95 "HgN/A
11:30 AM57 °FPassing clouds.8 mph48%29.95 "HgN/A
11:00 AM55 °FPassing clouds.8 mph59%29.95 "HgN/A
10:30 AM55 °FPassing clouds.8 mph63%29.95 "HgN/A
10:00 AM54 °FSunny.8 mph67%29.95 "Hg10 mi
9:30 AM52 °FSunny.6 mph72%29.95 "Hg10 mi
9:00 AM48 °FSunny.1 mph87%29.95 "Hg10 mi
8:30 AM45 °FClear.3 mph93%29.95 "Hg10 mi
8:00 AM43 °FClear.3 mph93%29.95 "Hg10 mi
7:30 AM41 °FClear.3 mph93%29.95 "Hg10 mi
7:00 AM43 °FClear.1 mph93%29.95 "Hg10 mi
Weather by CustomWeather, © 2014

See weather overviewHow to use our weather pages